COSMOS 1150

Satellite information

Favourite Embed

Satellite Type and Status

PAYLOADIN ORBIT

Key statistics

Satellite COSMOS 1150 at a glance.

Uptime

16719

Days in orbit

Revolutions

≈ 13.7

Per day

Orbit

LEO

Low Earth Orbit

Inclination

83.0

Latest

Satellite identification and parameters

Extended collection of information and parameters for COSMOS 1150.

Object identification

Identified? True

Debris? False

Object name: COSMOS 1150

International designator: 1980-003A

Object number (NORAD): 11667

Object ID (CCSDS): 11667

Country: COMMONWEALTH OF INDEPENDENT STATES (CIS)

Current information (Y/N): Y

RCS size: LARGE

Orbital parameters

Period: 104.83 minutes

Inclination: 82.9588 deg

SMA: 7364.61 km

Apoapsis: 1009.434 km

Periapsis: 963.517 km

RAAN: 354.5987 deg

Eccentricy: 0.0031174

Argument of periapsis: 226.2781 deg

Mean anomaly: 253.823 deg

Mean motion: 13.73656354 rev/day

Mean motion (dot): 0.00000093 rev/day2

B* drag term: 0.000083918 1/REarth

Two-line elements (TLE)

Creation date: Oct. 21, 2025, 11:56 p.m.

Reference frame: TEME

Reference center: EARTH

Epoch: Oct. 21, 2025, 4:57 p.m. UTC

TLE line 0: 0 COSMOS 1150

TLE line 1: 1 11667U 80003A 25294.70637844 .00000093 00000-0 83918-4 0 9998

TLE line 2: 2 11667 82.9588 354.5987 0031174 226.2781 253.8230 13.73656354289621

Live tracking on map

Real-time ground track for satellite COSMOS 1150.

In-orbit conjunctions

A list of the most updated potential collisions computed for object COSMOS 1150.

Target Orbit TCA Probability of collision Miss distance Type
THORAD AGENA D DEB SSO 2025-04-09 23:29:56 0.0002413186 536.0 (m) DEBRIS
SL-16 DEB SSO 2024-11-05 13:23:06 0.0001881827 522.0 (m) DEBRIS
COSMOS 962 LEO 2024-08-16 10:41:27 0.0009900744 120.0 (m) PAYLOAD

Associated space launch

Navigation satellite providing location information for the Tsiklon-B navigation system

COSMOS 1150 was lifted into orbit during the mission ‘Kosmos-3M | Parus 22’, on board a Kosmos-3M space rocket.

The launch took place on Jan. 14, 1980, 7:49 p.m. from 132/2.

For more information about the launch, click the button.

Launch to space Kosmos-3M | Parus 22
Kosmos-3M | Parus 22

Agency: N/A

Status: Launch Successful

Launch date: Jan. 14, 1980, 7:49 p.m. UTC

Rocket: Kosmos-3M

Launch pad: 132/2

Location: Plesetsk Cosmodrome, Russian Federation

...

Latest news about this satellite

There are no fresh news available about this satellite. Check back as we update our databases every day.


Newsletter sign-up

Weekly statistics, charts and insights to help you stay on top of the space industry.